[keps] orb09218.amsat

Ray Hoad r.hoad at att.net
Thu Aug 6 20:27:36 PDT 2009


SB KEPS @ AMSAT  $ORB09218.O
Orbital Elements  09218.OSCAR

HR AMSAT ORBITAL ELEMENTS FOR OSCAR SATELLITES
FROM WA5QGD FORT WORTH,TX August 6, 2009
Send Subscribe/unsubscribe to KEPS at 
http://www.amsat.org/mailman/listinfo/keps
BID: ORB09218.O
TO ALL RADIO AMATEURS BT

Satellite: AO-07
Catalog number: 07530
Epoch time:      09218.52640616
Element set:     548
Inclination:      101.4244 deg
RA of node:       241.3519 deg
Eccentricity:    0.0011745
Arg of perigee:   168.9775 deg
Mean anomaly:     191.1560 deg
Mean motion:   12.53576053 rev/day
Decay rate:       -2.7e-07 rev/day^2
Epoch rev:           58902
Checksum:              296

Satellite: FO-29
Catalog number: 24278
Epoch time:      09218.06798528
Element set:    0106
Inclination:      098.5461 deg
RA of node:       085.3854 deg
Eccentricity:    0.0350097
Arg of perigee:   221.0245 deg
Mean anomaly:     136.4087 deg
Mean motion:   13.52944989 rev/day
Decay rate:       1.46e-06 rev/day^2
Epoch rev:           64049
Checksum:              339

Satellite: SO-33
Catalog number: 25509
Epoch time:      09217.82261861
Element set:    0515
Inclination:      031.4309 deg
RA of node:       131.8193 deg
Eccentricity:    0.0354033
Arg of perigee:   052.4708 deg
Mean anomaly:     310.7565 deg
Mean motion:   14.28260842 rev/day
Decay rate:       2.31e-06 rev/day^2
Epoch rev:           56293
Checksum:              286

Satellite: RS-22
Catalog number: 27939
Epoch time:      09217.70445482
Element set:    0859
Inclination:      097.9369 deg
RA of node:       090.7546 deg
Eccentricity:    0.0013201
Arg of perigee:   341.0019 deg
Mean anomaly:     019.0684 deg
Mean motion:   14.63332599 rev/day
Decay rate:       -1.7e-07 rev/day^2
Epoch rev:           31281
Checksum:              316

Satellite: VO-52
Catalog number: 28650
Epoch time:      09217.82335502
Element set:    0291
Inclination:      097.7389 deg
RA of node:       277.7560 deg
Eccentricity:    0.0026162
Arg of perigee:   226.0531 deg
Mean anomaly:     133.8482 deg
Mean motion:   14.81608083 rev/day
Decay rate:       1.43e-06 rev/day^2
Epoch rev:           22999
Checksum:              317

/EX
SB KEPS @ AMSAT  $ORB09218.D
Orbital Elements  09218.MICROS

HR AMSAT ORBITAL ELEMENTS FOR THE MICROSATS
FROM WA5QGD FORT WORTH,TX August 6, 2009
Send Subscribe/unsubscribe to KEPS at 
http://www.amsat.org/mailman/listinfo/keps
BID: ORB09218.D
TO ALL RADIO AMATEURS BT

Satellite: AO-16
Catalog number: 20439
Epoch time:      09217.95937409
Element set:    0670
Inclination:      098.2823 deg
RA of node:       184.1068 deg
Eccentricity:    0.0011565
Arg of perigee:   027.5310 deg
Mean anomaly:     332.6492 deg
Mean motion:   14.31829965 rev/day
Decay rate:       -6.0e-08 rev/day^2
Epoch rev:           02027
Checksum:              306

Satellite: LO-19
Catalog number: 20442
Epoch time:      09218.00820543
Element set:    0586
Inclination:      098.2452 deg
RA of node:       191.2235 deg
Eccentricity:    0.0012242
Arg of perigee:   023.9984 deg
Mean anomaly:     336.1784 deg
Mean motion:   14.32065018 rev/day
Decay rate:     -.00000000 rev/day^2
Epoch rev:           02044
Checksum:              258

Satellite: AO-27
Catalog number: 22825
Epoch time:      09217.98987590
Element set:    0308
Inclination:      098.4383 deg
RA of node:       169.8530 deg
Eccentricity:    0.0009228
Arg of perigee:   114.9844 deg
Mean anomaly:     245.2305 deg
Mean motion:   14.29270188 rev/day
Decay rate:       -5.2e-07 rev/day^2
Epoch rev:           82702
Checksum:              333

Satellite: IO-26
Catalog number: 22826
Epoch time:      09217.97130768
Element set:    0038
Inclination:      098.4332 deg
RA of node:       170.5626 deg
Eccentricity:    0.0009834
Arg of perigee:   110.7733 deg
Mean anomaly:     249.4507 deg
Mean motion:   14.29522652 rev/day
Decay rate:       -2.3e-07 rev/day^2
Epoch rev:           82712
Checksum:              307

Satellite: GO-32
Catalog number: 25397
Epoch time:      09217.70885507
Element set:    0959
Inclination:      098.3252 deg
RA of node:       237.3952 deg
Eccentricity:    0.0002231
Arg of perigee:   102.1928 deg
Mean anomaly:     257.9480 deg
Mean motion:   14.23161727 rev/day
Decay rate:       -5.9e-07 rev/day^2
Epoch rev:           57517
Checksum:              324

Satellite: NO-44
Catalog number: 26931
Epoch time:      09217.95770410
Element set:    0234
Inclination:      067.0536 deg
RA of node:       296.1218 deg
Eccentricity:    0.0006291
Arg of perigee:   276.0335 deg
Mean anomaly:     084.0053 deg
Mean motion:   14.29562034 rev/day
Decay rate:      -1.10e-06 rev/day^2
Epoch rev:           40969
Checksum:              287

Satellite: SO-50
Catalog number: 27607
Epoch time:      09217.52981322
Element set:     951
Inclination:      064.5562 deg
RA of node:       235.2288 deg
Eccentricity:    0.0062117
Arg of perigee:   193.7336 deg
Mean anomaly:     166.2096 deg
Mean motion:   14.71451608 rev/day
Decay rate:        7.1e-07 rev/day^2
Epoch rev:           35593
Checksum:              311

Satellite: CO-55
Catalog number: 27844
Epoch time:      09217.57503763
Element set:    0638
Inclination:      098.7128 deg
RA of node:       226.0425 deg
Eccentricity:    0.0010439
Arg of perigee:   006.4617 deg
Mean anomaly:     353.6698 deg
Mean motion:   14.20649405 rev/day
Decay rate:        2.0e-07 rev/day^2
Epoch rev:           31627
Checksum:              311

Satellite: CO-57
Catalog number: 27848
Epoch time:      09217.55947731
Element set:    0587
Inclination:      098.7164 deg
RA of node:       225.0894 deg
Eccentricity:    0.0010178
Arg of perigee:   010.7093 deg
Mean anomaly:     349.4304 deg
Mean motion:   14.20450198 rev/day
Decay rate:        1.4e-07 rev/day^2
Epoch rev:           31623
Checksum:              315

Satellite: AO-51
Catalog number: 28375
Epoch time:      09218.45733493
Element set:     454
Inclination:      098.0523 deg
RA of node:       225.1303 deg
Eccentricity:    0.0084466
Arg of perigee:   333.4001 deg
Mean anomaly:     026.2872 deg
Mean motion:   14.40648523 rev/day
Decay rate:       -5.0e-08 rev/day^2
Epoch rev:           26819
Checksum:              295

Satellite: CO-56
Catalog number: 28941
Epoch time:      09218.57306559
Element set:     322
Inclination:      098.1343 deg
RA of node:       042.7487 deg
Eccentricity:    0.0068458
Arg of perigee:   299.9969 deg
Mean anomaly:     059.4746 deg
Mean motion:   15.90941206 rev/day
Decay rate:     6.3575e-04 rev/day^2
Epoch rev:           19524
Checksum:              373

Satellite: GENESAT1
Catalog number: 29655
Epoch time:      09217.47317751
Element set:    0782
Inclination:      040.0232 deg
RA of node:       234.2800 deg
Eccentricity:    0.0001400
Arg of perigee:   167.8443 deg
Mean anomaly:     192.2408 deg
Mean motion:   15.66538409 rev/day
Decay rate:      8.746e-05 rev/day^2
Epoch rev:           15020
Checksum:              281

Satellite: CP3
Catalog number: 31129
Epoch time:      09218.54157338
Element set:     111
Inclination:      097.9867 deg
RA of node:       269.2011 deg
Eccentricity:    0.0103598
Arg of perigee:   128.7210 deg
Mean anomaly:     232.3316 deg
Mean motion:   14.52153339 rev/day
Decay rate:       1.37e-06 rev/day^2
Epoch rev:           12219
Checksum:              283

Satellite: CO-65
Catalog number: 32785
Epoch time:      09217.83470974
Element set:    0441
Inclination:      097.9419 deg
RA of node:       281.3832 deg
Eccentricity:    0.0014017
Arg of perigee:   228.2296 deg
Mean anomaly:     131.7701 deg
Mean motion:   14.81506380 rev/day
Decay rate:       2.47e-06 rev/day^2
Epoch rev:           06879
Checksum:              325

Satellite: KKS-1
Catalog number: 33493
Epoch time:      09218.57905894
Element set:     635
Inclination:      098.0592 deg
RA of node:       331.0180 deg
Eccentricity:    0.0021447
Arg of perigee:   079.5538 deg
Mean anomaly:     280.8087 deg
Mean motion:   14.80709027 rev/day
Decay rate:       1.57e-06 rev/day^2
Epoch rev:            2892
Checksum:              323

Satellite: SOHLA-1
Catalog number: 33496
Epoch time:      09218.57202649
Element set:     599
Inclination:      098.0404 deg
RA of node:       327.1025 deg
Eccentricity:    0.0007675
Arg of perigee:   117.0566 deg
Mean anomaly:     243.1427 deg
Mean motion:   14.69441616 rev/day
Decay rate:       -2.7e-07 rev/day^2
Epoch rev:            2867
Checksum:              309

/EX
SB KEPS @ AMSAT  $ORB09218.W
Orbital Elements  09218.WEATHER

HR AMSAT ORBITAL ELEMENTS FOR WEATHER SATELLITES
FROM WA5QGD FORT WORTH,TX August 6, 2009
Send Subscribe/unsubscribe to KEPS at 
http://www.amsat.org/mailman/listinfo/keps
BID: ORB09218.W
TO ALL RADIO AMATEURS BT

Satellite: NOAA-10
Catalog number: 16969
Epoch time:      09217.99666487
Element set:    0715
Inclination:      098.6907 deg
RA of node:       244.3694 deg
Eccentricity:    0.0013158
Arg of perigee:   053.3257 deg
Mean anomaly:     306.9141 deg
Mean motion:   14.27391552 rev/day
Decay rate:       -1.8e-07 rev/day^2
Epoch rev:           19061
Checksum:              334

Satellite: NOAA-11
Catalog number: 19531
Epoch time:      09217.84998358
Element set:    0731
Inclination:      098.7844 deg
RA of node:       307.0363 deg
Eccentricity:    0.0011309
Arg of perigee:   331.0407 deg
Mean anomaly:     029.0125 deg
Mean motion:   14.14900335 rev/day
Decay rate:        7.0e-08 rev/day^2
Epoch rev:           07654
Checksum:              289

Satellite: NOAA-12
Catalog number: 21263
Epoch time:      09218.07999985
Element set:    0253
Inclination:      098.7728 deg
RA of node:       226.1638 deg
Eccentricity:    0.0012885
Arg of perigee:   006.4290 deg
Mean anomaly:     353.7052 deg
Mean motion:   14.25587875 rev/day
Decay rate:        2.0e-07 rev/day^2
Epoch rev:           94750
Checksum:              332

